Weather History for ENOA - January, 2013

Change the Weather History Date:

Thursday, January 31, 2013

  Actual Average Record
Temperature  
Mean Temperature 31 °F -  
Max Temperature 39 °F 42 °F 48 °F (1999)
Min Temperature 23 °F 38 °F 22 °F (2014)
Degree Days  
Heating Degree Days 34    
Moisture  
Dew Point 28 °F    
Average Humidity 67    
Maximum Humidity 89    
Minimum Humidity 45    
Precipitation  
Precipitation 0.01 in - - ()
Sea Level Pressure  
Sea Level Pressure 29.23 in    
Wind  
Wind Speed 21 mph ()    
Max Wind Speed 55 mph    
Max Gust Speed -    
Visibility 6.1 miles    
Events Rain , Snow    
Averages and records for this station are not official NWS values.
T = Trace of Precipitation, MM = Missing Value Source: Averaged Metar Reports

Daily Weather History Graph

Daily Weather History Graph

Search for Another Location

Airport or City:

Trip Planner

Search our weather history database for the weather conditions in past years. The results will help you decide how hot, cold, wet, or windy it might be!

Date:

Astronomy

Jan. 31, 2013 Rise Set
Actual Time 9:07 AM CET 4:57 PM CET
Civil Twilight 8:18 AM CET 5:46 PM CET
Nautical Twilight 7:27 AM CET 6:38 PM CET
Astronomical Twilight 6:37 AM CET 7:27 PM CET
Moon 11:19 PM CET (1/31) 9:33 AM CET (1/31)
Length of Visible Light 9h 27m
Length of Day
7h 50m
Waning Gibbous, 82% of the Moon is Illuminated
Jan 31
Waning Gibbous
Feb 3
Last Quarter
Feb 10
New
Feb 17
First Quarter
Feb 25
Full

Hourly Weather History & Observations

Time (CET) Temp. Windchill Dew Point Humidity Pressure Visibility Wind Dir Wind Speed Gust Speed Precip Events Conditions
12:50 AM 42.8 °F 29.2 °F 33.8 °F 70% 28.97 in 6.2 mi North 55.2 mph - N/A   Mostly Cloudy
1:00 AM 37 °F - 33 °F 79% 28.74 in - South 11.2 mph - -  
1:50 AM 42.8 °F 29.9 °F 33.8 °F 70% 29.03 in 6.2 mi North 48.3 mph - N/A   Mostly Cloudy
2:50 AM 42.8 °F 31.0 °F 28.4 °F 57% 29.09 in 6.2 mi North 39.1 mph - N/A   Mostly Cloudy
3:50 AM 41.0 °F 28.2 °F 30.2 °F 65% 29.15 in 6.2 mi North 41.4 mph - N/A   Mostly Cloudy
4:00 AM 35 °F - 32 °F 84% 28.77 in - ESE 2.2 mph - -  
4:50 AM 41.0 °F 29.1 °F 32.0 °F 70% 29.18 in 6.2 mi North 34.5 mph - N/A   Scattered Clouds
5:20 AM 41.0 °F 29.5 °F 30.2 °F 65% 29.24 in 6.2 mi North 32.2 mph - N/A   Scattered Clouds
5:50 AM 41.0 °F 30.9 °F 30.2 °F 65% 29.24 in 6.2 mi North 24.2 mph - N/A   Partly Cloudy
6:20 AM 41.0 °F 30.2 °F 24.8 °F 53% 29.27 in 6.2 mi NNW 27.6 mph - N/A   Mostly Cloudy
6:50 AM 41.0 °F 30.9 °F 24.8 °F 53% 29.27 in 6.2 mi NNW 24.2 mph - N/A   Scattered Clouds
7:00 AM 35 °F - 31 °F 82% 28.92 in - NNW 6.7 mph - -  
7:20 AM 41.0 °F 30.5 °F 24.8 °F 53% 29.27 in 6.2 mi NNW 26.5 mph - N/A   Scattered Clouds
7:50 AM 39.2 °F 29.8 °F 21.2 °F 49% 29.27 in 6.2 mi NW 18.4 mph - N/A   Partly Cloudy
8:20 AM 41.0 °F 31.6 °F 23.0 °F 49% 29.27 in 6.2 mi NNW 20.7 mph - N/A   Partly Cloudy
8:50 AM 41.0 °F 31.9 °F 21.2 °F 45% 29.27 in 6.2 mi NNW 19.6 mph - N/A   Partly Cloudy
9:50 AM 41.0 °F 32.2 °F 24.8 °F 53% 29.27 in 6.2 mi NW 18.4 mph - N/A   Partly Cloudy
10:00 AM 32 °F - 29 °F 86% 29.09 in - Calm Calm - -  
10:50 AM 41.0 °F 32.5 °F 24.8 °F 53% 29.27 in 6.2 mi NNW 17.3 mph - N/A   Partly Cloudy
11:50 AM 41.0 °F 33.1 °F 24.8 °F 53% 29.30 in 6.2 mi NNW 15.0 mph - N/A   Scattered Clouds
1:20 PM 41.0 °F 33.1 °F 28.4 °F 61% 29.30 in 6.2 mi North 15.0 mph - N/A   Scattered Clouds
1:50 PM 41.0 °F 34.3 °F 30.2 °F 65% 29.30 in 6.2 mi North 11.5 mph - N/A   Scattered Clouds
2:20 PM 41.0 °F 34.7 °F 30.2 °F 65% 29.30 in 6.2 mi North 10.4 mph - N/A   Partly Cloudy
2:50 PM 41.0 °F 34.7 °F 28.4 °F 61% 29.30 in 6.2 mi NNW 10.4 mph - N/A   Partly Cloudy
3:50 PM 41.0 °F 34.7 °F 26.6 °F 57% 29.30 in 6.2 mi NW 10.4 mph - N/A   Scattered Clouds
4:00 PM 35 °F - 21 °F 45% 29.21 in - NNW 6.7 mph - -  
4:20 PM 39.2 °F 30.2 °F 30.2 °F 70% 29.30 in 6.2 mi NNW 17.3 mph - N/A   Scattered Clouds
4:50 PM 37.4 °F 27.5 °F 28.4 °F 70% 29.30 in 6.2 mi NW 18.4 mph - N/A   Mostly Cloudy
5:20 PM 35.6 °F 29.2 °F 32.0 °F 87% 29.33 in 4.3 mi West 8.1 mph - N/A Rain , Snow Light Rain Showers
5:50 PM 37.4 °F 31.4 °F 30.2 °F 75% 29.33 in 6.2 mi NNW 8.1 mph - N/A   Partly Cloudy
6:20 PM 39.2 °F 32.5 °F 32.0 °F 75% 29.33 in - NNW 10.4 mph - N/A   Clear
6:50 PM 39.2 °F 31.2 °F 30.2 °F 70% 29.33 in - NNW 13.8 mph - N/A   Clear
7:00 PM 26 °F - 23 °F 83% 29.27 in - Calm Calm - -  
8:20 PM 39.2 °F 30.8 °F 32.0 °F 75% 29.36 in 6.2 mi NNE 15.0 mph - N/A   Partly Cloudy
8:50 PM 39.2 °F 31.2 °F 32.0 °F 75% 29.36 in 6.2 mi NNE 13.8 mph - N/A   Partly Cloudy
9:50 PM 39.2 °F 29.8 °F 33.8 °F 81% 29.36 in 6.2 mi NNE 18.4 mph - N/A   Mostly Cloudy
10:00 PM 23 °F - 21 °F 89% 29.32 in - North 2.2 mph - -  
10:50 PM 37.4 °F 28.9 °F 32.0 °F 81% 29.39 in 6.2 mi NNE 13.8 mph - N/A   Mostly Cloudy
11:50 PM 39.2 °F 33.6 °F 30.2 °F 70% 29.39 in - NNE 8.1 mph - N/A   Clear